Starlink 11255

operational
NORAD ID: 60730 Int'l Des: 2024-152 Owner: SPXS Country: US Constellation: starlink
LEOCIRCULAR

关于 Starlink 11255

正在加载描述...

实时位置

正在加载3D地球...

即将过境

高度历史

Altitude vs Time

uPlot chart will show altitude changes over time

两行轨道根数

1 60730U 24152L 25307.59371336 -.00002991 00000-0 -19842-4 0 9995
2 60730 53.1587 17.6159 0001449 98.6462 261.4720 15.69696729 69040
Epoch: Nov 3, 2025 • Age: 16 hours

当前状态

高度 362.9 km
速度 7.69 km/s
星下点 -11.41°S, 63.9°E
发射日期 Aug 28, 2024
运行时间 1.1 years
类型 internet

技术详情

分类 Payload
质量 960.00 kg
干质量 910.00 kg
总质量 960.00 kg
长度 0.30 m
直径 4.10 m
跨度 29.00 m
形状 Box + pan
制造商 SPXS
平台类型 Starlink V2MD
阶段状态 In Orbit
所有者/国家 SPXS/US

大型星座

Loading constellations...